Wind_Speed
1 2 2 2 3 3 3 3 3 4 4 5 6 6 5 6 6 7 7 7 8 8 8 8 8 8 8 8 8 8 9 9 10 11 11 11 11 10 10 9 9 8 8
1 1 1 2 2 3 3 3 4 4 5 6 5 5 5 6 7 7 7 7 8 8 9 9 9 9 8 8 8 9 9 9 10 10 10 11 11 11 11 10 9 9 9
0 1 1 2 2 3 3 4 4 5 5 6 6 6 6 7 7 8 8 8 8 8 8 9 9 9 8 9 9 9 9 9 9 9 10 10 11 11 11 11 10 10 9
0 0 1 2 3 3 3 4 5 5 6 6 6 6 6 7 7 8 8 8 8 9 9 8 8 9 9 9 9 9 9 9 9 9 9 9 10 11 11 11 11 10 10
0 0 1 2 3 4 4 5 5 6 6 6 6 6 6 7 8 8 8 9 8 9 9 8 8 9 9 9 9 9 9 9 9 9 9 9 10 11 11 12 11 11 11
1 0 1 2 3 3 4 5 5 6 6 6 6 7 7 8 8 8 8 8 8 8 9 9 9 9 9 9 9 9 9 9 9 9 9 9 10 11 11 12 12 11 11
1 0 1 2 3 3 4 5 5 6 6 6 7 8 8 8 9 9 8 8 9 9 9 9 9 10 10 10 10 10 9 10 9 9 9 9 9 10 10 11 11 11 11
2 0 1 2 2 3 5 5 5 6 7 7 8 8 8 9 9 9 8 8 9 9 9 9 9 9 9 9 9 10 10 10 10 10 10 9 9 9 10 11 11 11 11
2 1 1 2 3 4 5 5 5 6 7 7 8 9 9 10 10 9 9 9 9 8 9 9 9 9 9 9 9 9 10 10 10 10 10 9 9 9 10 11 11 11 11
2 1 0 1 2 3 4 5 5 6 7 8 9 10 10 10 10 9 9 9 9 8 8 9 8 8 8 8 8 9 10 10 10 10 10 10 9 9 9 10 11 11 11
2 1 1 1 2 3 4 5 5 6 7 8 9 10 11 11 10 10 10 9 9 8 8 8 8 8 7 8 8 8 9 10 10 10 10 10 9 9 9 10 10 10 11
2 2 1 1 2 3 4 5 6 7 8 9 10 11 12 12 11 10 10 9 8 8 8 7 7 7 7 7 7 7 7 8 9 9 9 9 9 9 9 10 10 9 10
3 2 1 1 2 3 3 4 6 7 8 9 10 11 12 11 11 10 10 9 8 7 7 6 6 5 5 6 6 6 7 8 8 8 9 9 8 8 9 9 9 9 9
4 3 2 1 1 2 3 4 5 7 9 10 11 11 12 11 11 11 11 10 9 8 7 6 5 4 3 4 5 5 6 7 8 8 9 9 8 8 8 8 9 9 8
4 4 3 2 2 2 3 4 5 7 9 10 11 12 12 12 12 12 12 11 10 9 8 7 5 3 2 2 3 4 5 6 7 8 8 8 8 8 8 8 8 8 8
5 4 4 3 2 3 3 5 6 7 9 10 12 12 13 13 13 13 13 13 12 11 9 7 5 4 1 1 2 3 4 5 6 7 7 7 7 7 7 7 7 8 8
6 5 4 3 3 3 4 5 6 7 9 10 11 13 13 14 14 14 14 14 14 12 11 9 7 5 4 3 2 2 3 5 5 6 7 6 6 6 6 6 7 7 7
7 6 5 4 3 3 4 4 6 8 9 11 12 13 14 14 15 15 15 15 15 14 13 11 9 8 6 5 4 4 5 5 6 6 6 6 6 6 6 6 6 7 7
7 6 6 4 3 4 4 4 6 8 9 11 12 13 14 15 15 15 15 15 16 15 14 13 11 10 9 7 7 6 6 6 6 6 6 6 6 6 5 6 6 6 6
8 7 6 5 4 4 4 4 6 7 9 10 12 13 14 15 15 16 16 16 16 15 15 14 13 12 11 10 9 8 7 7 7 6 6 5 5 5 5 5 5 5 5
9 8 7 5 4 4 4 5 6 7 8 10 12 13 14 15 15 15 16 16 16 16 15 15 14 13 13 12 11 10 10 8 7 7 6 6 5 5 5 5 5 5 5
10 9 7 6 5 4 5 5 6 6 8 9 11 12 13 14 15 15 16 16 16 16 16 15 15 14 13 13 12 11 11 9 8 7 6 6 5 6 6 5 5 5 4
11 9 8 7 6 5 5 5 5 6 7 9 10 11 13 14 14 15 16 16 16 16 16 15 15 15 14 14 13 12 11 10 8 8 7 7 6 6 5 5 4 4 4
12 11 9 8 7 5 5 5 5 5 6 7 9 10 12 13 14 14 15 16 16 16 16 15 15 15 14 14 13 13 12 10 9 8 8 7 7 6 5 4 4 3 3
13 12 10 9 7 6 5 5 4 5 6 7 8 9 10 12 13 13 14 14 15 15 15 15 15 14 14 13 13 12 12 11 10 9 8 7 6 6 5 5 4 3 3
14 12 11 9 7 6 5 5 4 4 5 6 7 8 9 10 11 12 13 14 14 14 14 14 14 14 13 13 13 12 12 11 10 9 8 7 7 6 5 4 3 2 2
Wind_Direction
98 76 52 43 27 15 7 4 356 351 343 336 331 321 313 316 313 305 296 284 274 269 269 264 260 256 255 253 249 246 244 236 233 233 231 227 221 219 218 218 217 214 211
117 71 35 22 9 357 348 347 341 337 333 330 324 313 309 309 309 303 296 288 280 274 269 266 263 258 255 255 252 250 248 240 235 234 232 228 224 221 220 220 222 220 218
171 26 10 7 360 350 347 341 334 330 326 324 320 313 311 311 306 301 295 292 281 272 270 267 264 260 259 257 253 251 250 243 236 233 230 228 226 222 221 221 224 224 222
155 58 14 11 351 346 348 345 337 332 328 324 321 317 314 311 308 303 298 296 286 275 269 264 261 263 262 259 255 251 249 246 239 233 231 230 228 224 222 222 224 225 225
280 73 34 8 348 343 345 343 338 335 332 328 326 324 322 319 314 308 301 296 288 280 274 266 266 267 264 260 256 250 247 245 240 235 234 231 229 225 223 223 224 226 227
269 83 31 355 347 347 347 343 341 339 338 337 332 329 326 321 316 311 305 297 288 283 281 276 270 266 265 260 255 250 245 242 238 233 233 231 228 224 224 224 224 227 226
214 243 351 355 356 356 351 346 343 342 341 339 335 331 327 322 317 312 306 298 292 287 282 276 272 270 267 261 255 251 246 241 236 232 231 230 228 225 224 223 223 224 223
202 203 343 344 356 357 351 347 346 347 345 342 339 336 331 327 323 316 310 304 298 291 286 281 278 273 269 265 257 250 245 240 236 231 227 227 227 226 224 223 223 223 221
190 231 308 348 359 356 356 355 351 350 353 352 347 343 338 335 330 323 316 310 304 295 290 286 282 276 270 265 256 248 242 239 235 232 226 225 227 226 223 222 221 221 220
182 206 234 3 3 3 3 2 357 359 0 357 353 350 347 342 338 331 325 317 310 303 296 290 286 281 272 266 258 250 243 237 231 229 225 225 227 225 223 220 217 219 221
189 192 133 38 26 17 8 4 2 4 3 0 358 355 352 349 345 340 332 323 314 308 303 295 291 285 275 266 259 252 242 234 227 226 224 225 224 221 220 217 215 218 220
195 176 135 50 31 17 10 5 6 8 6 4 2 359 356 354 351 348 342 335 328 320 314 304 295 290 276 264 258 252 236 228 222 222 219 219 219 216 215 213 212 216 219
179 173 142 69 37 20 10 8 10 10 9 8 4 1 359 358 358 357 355 350 344 336 327 316 305 291 271 258 249 243 231 219 212 212 212 212 214 211 212 212 213 215 217
169 170 157 112 55 39 26 20 20 18 14 12 8 6 5 5 5 4 3 2 360 355 346 335 326 305 273 251 243 236 222 214 209 208 207 208 209 207 208 211 214 215 216
169 167 164 145 101 69 46 35 31 27 22 19 16 14 14 14 14 14 13 12 9 5 1 354 349 340 297 244 227 216 213 211 205 203 202 204 206 206 205 211 213 215 218
170 167 166 148 114 84 58 43 39 32 27 25 22 22 23 23 24 24 23 22 19 16 14 15 17 19 26 187 196 197 202 199 193 192 193 196 200 201 202 204 207 209 210
169 163 162 146 117 90 66 52 44 37 32 29 27 27 29 30 31 30 29 28 27 27 28 32 38 45 60 87 118 149 161 168 177 179 180 184 186 189 193 193 195 200 204
172 166 162 147 123 96 76 60 49 45 37 35 32 32 33 34 35 34 33 33 33 35 39 43 48 55 66 78 93 115 134 147 160 163 162 167 170 177 184 188 190 193 198
173 169 164 150 126 101 87 68 57 50 42 39 37 38 38 38 38 38 37 37 38 40 44 48 54 59 65 75 89 103 115 128 140 146 151 156 159 163 172 182 180 183 190
176 172 168 157 132 112 96 79 67 54 46 43 42 43 42 42 42 42 41 41 42 44 47 52 56 60 65 74 84 95 102 112 122 129 137 143 150 153 159 167 169 172 178
178 177 172 162 141 119 106 90 74 59 52 48 47 46 43 43 43 44 44 45 47 49 53 57 59 62 67 72 80 88 93 100 109 116 119 125 137 150 157 160 161 164 174
181 179 175 169 152 129 112 96 83 68 58 53 51 47 45 44 45 46 46 47 49 51 55 59 60 62 65 70 77 83 84 88 96 101 107 111 122 137 147 154 156 162 159
185 182 179 172 159 140 120 102 90 76 63 56 53 50 47 47 48 49 49 50 51 53 57 59 60 62 67 70 74 80 83 85 89 93 98 99 101 113 122 135 140 147 152
187 184 182 176 165 148 130 112 93 80 70 61 56 52 49 49 50 51 51 52 52 54 57 59 61 64 68 71 74 76 80 83 87 90 92 94 94 97 103 110 119 121 133
186 185 182 178 171 157 141 125 103 87 77 67 59 54 52 51 50 52 51 53 53 54 57 59 61 64 67 70 71 72 75 79 84 85 86 87 89 93 98 104 106 106 110
189 187 185 184 177 168 156 141 121 97 85 75 62 56 54 52 51 51 52 54 54 54 56 58 60 62 64 65 66 67 69 72 77 77 77 79 81 81 82 86 97 103 97
Height
5896 5895 5895 5894 5894 5893 5893 5892 5891 5890 5890 5889 5887 5886 5885 5884 5883 5881 5880 5879 5878 5877 5877 5876 5876 5875 5875 5875 5876 5876 5876 5877 5878 5879 5880 5881 5882 5883 5884 5884 5885 5886 5887
5896 5895 5895 5894 5894 5893 5892 5892 5891 5890 5889 5888 5887 5886 5884 5883 5882 5880 5879 5878 5877 5876 5875 5875 5874 5874 5874 5874 5874 5874 5875 5875 5876 5877 5878 5879 5880 5881 5882 5883 5884 5885 5886
5895 5895 5894 5894 5893 5893 5892 5891 5890 5889 5888 5887 5886 5885 5883 5882 5881 5879 5878 5877 5875 5874 5874 5873 5872 5872 5872 5872 5872 5873 5873 5874 5874 5875 5876 5877 5879 5880 5881 5882 5883 5884 5885
5895 5894 5894 5893 5893 5892 5892 5891 5890 5889 5888 5886 5885 5884 5882 5881 5880 5878 5877 5875 5874 5873 5872 5871 5871 5870 5870 5870 5870 5871 5872 5872 5873 5873 5875 5876 5877 5878 5879 5880 5881 5883 5884
5894 5894 5893 5893 5893 5892 5891 5890 5889 5888 5887 5885 5884 5883 5881 5880 5878 5877 5875 5873 5872 5871 5870 5869 5869 5868 5868 5868 5869 5869 5870 5870 5871 5872 5873 5874 5875 5876 5878 5879 5880 5881 5882
5893 5893 5893 5893 5892 5891 5891 5890 5889 5887 5886 5885 5883 5882 5880 5879 5877 5875 5873 5872 5870 5869 5868 5867 5867 5866 5866 5866 5867 5867 5868 5868 5869 5870 5871 5872 5873 5874 5876 5877 5878 5880 5881
5893 5893 5892 5892 5892 5891 5890 5889 5888 5887 5886 5884 5883 5881 5879 5877 5875 5873 5872 5870 5868 5867 5866 5865 5865 5865 5864 5864 5865 5865 5866 5867 5867 5868 5869 5870 5872 5873 5874 5875 5877 5878 5879
5892 5892 5892 5892 5892 5891 5890 5889 5888 5886 5885 5883 5882 5880 5878 5876 5874 5872 5870 5868 5867 5865 5864 5864 5863 5863 5862 5862 5863 5863 5864 5865 5865 5866 5867 5869 5870 5871 5872 5874 5875 5877 5878
5892 5892 5892 5892 5891 5891 5890 5888 5887 5886 5885 5883 5881 5879 5877 5875 5872 5870 5868 5866 5865 5864 5862 5861 5861 5860 5860 5860 5860 5861 5862 5863 5864 5864 5866 5867 5868 5869 5871 5872 5874 5875 5877
5891 5891 5891 5891 5891 5890 5889 5888 5887 5886 5884 5882 5880 5878 5876 5873 5871 5869 5866 5865 5863 5862 5860 5859 5859 5858 5858 5858 5858 5859 5859 5860 5862 5863 5864 5865 5867 5868 5869 5871 5872 5874 5875
5891 5891 5891 5891 5891 5890 5889 5888 5887 5886 5884 5882 5880 5877 5875 5872 5870 5867 5865 5863 5861 5859 5858 5857 5856 5856 5856 5856 5856 5857 5857 5858 5859 5861 5862 5863 5865 5866 5867 5869 5871 5872 5874
5890 5891 5891 5891 5890 5890 5889 5888 5887 5885 5884 5882 5879 5877 5874 5871 5868 5866 5863 5861 5859 5858 5856 5855 5855 5854 5854 5854 5854 5855 5855 5856 5857 5859 5860 5862 5863 5865 5866 5868 5869 5871 5873
5890 5890 5891 5891 5890 5890 5889 5888 5887 5885 5883 5881 5879 5876 5874 5871 5868 5865 5863 5860 5858 5856 5855 5854 5853 5852 5852 5852 5852 5853 5854 5855 5856 5858 5859 5861 5862 5864 5865 5867 5868 5870 5871
5890 5890 5891 5891 5890 5889 5889 5888 5887 5885 5883 5881 5879 5876 5873 5870 5867 5865 5862 5859 5857 5855 5854 5852 5851 5850 5850 5850 5851 5851 5852 5853 5855 5856 5858 5860 5861 5863 5864 5866 5867 5869 5870
5890 5890 5891 5891 5890 5889 5889 5888 5887 5885 5884 5881 5879 5876 5873 5870 5867 5864 5861 5859 5857 5855 5853 5851 5850 5849 5849 5849 5849 5850 5851 5852 5854 5855 5857 5859 5860 5862 5863 5865 5866 5868 5869
5889 5890 5891 5891 5890 5890 5889 5888 5887 5886 5884 5882 5879 5876 5873 5870 5867 5864 5862 5859 5857 5854 5852 5851 5850 5849 5849 5848 5849 5849 5850 5851 5853 5854 5856 5858 5860 5861 5863 5864 5866 5867 5868
5889 5890 5890 5891 5890 5890 5889 5889 5887 5886 5884 5882 5880 5877 5874 5871 5868 5865 5863 5860 5857 5855 5853 5851 5850 5849 5848 5848 5848 5849 5850 5851 5853 5854 5856 5857 5859 5861 5862 5864 5865 5866 5867
5889 5890 5890 5891 5890 5890 5890 5889 5888 5886 5885 5883 5880 5878 5875 5872 5869 5866 5864 5861 5858 5856 5854 5852 5851 5850 5849 5849 5849 5850 5851 5852 5853 5854 5856 5857 5859 5860 5862 5863 5864 5865 5866
5888 5889 5890 5891 5891 5890 5890 5889 5888 5887 5885 5883 5881 5879 5876 5873 5870 5868 5865 5863 5860 5858 5856 5854 5852 5851 5851 5850 5850 5851 5852 5853 5854 5855 5857 5858 5859 5860 5861 5863 5864 5865 5866
5888 5889 5890 5891 5891 5890 5890 5890 5889 5888 5886 5884 5882 5880 5877 5875 5872 5870 5867 5865 5862 5860 5858 5856 5854 5853 5852 5852 5852 5852 5853 5854 5855 5856 5857 5858 5860 5861 5862 5863 5864 5865 5866
5888 5889 5890 5891 5891 5891 5890 5890 5889 5888 5887 5886 5884 5881 5879 5876 5874 5872 5869 5867 5864 5862 5860 5859 5857 5856 5855 5854 5854 5854 5855 5855 5856 5857 5858 5859 5860 5861 5862 5863 5864 5864 5865
5887 5889 5890 5891 5891 5891 5891 5890 5890 5889 5888 5887 5885 5883 5881 5878 5876 5874 5871 5869 5867 5865 5863 5861 5860 5859 5858 5857 5857 5857 5857 5858 5858 5859 5860 5860 5861 5862 5862 5863 5864 5864 5865
5886 5888 5889 5890 5891 5891 5891 5891 5891 5890 5889 5888 5886 5884 5882 5880 5878 5876 5874 5871 5869 5867 5866 5864 5863 5861 5861 5860 5860 5860 5860 5860 5860 5861 5861 5862 5862 5863 5863 5864 5864 5865 5865
5886 5887 5889 5890 5891 5891 5891 5891 5891 5891 5890 5889 5888 5886 5884 5882 5880 5878 5876 5874 5872 5870 5868 5867 5866 5865 5864 5863 5863 5862 5863 5862 5863 5863 5863 5863 5863 5864 5864 5864 5865 5865 5865
5885 5887 5888 5890 5891 5891 5892 5892 5892 5891 5891 5890 5889 5887 5886 5884 5882 5880 5878 5876 5875 5873 5871 5870 5869 5868 5867 5866 5866 5865 5865 5865 5865 5865 5865 5865 5865 5865 5865 5865 5865 5866 5866
5884 5886 5888 5889 5890 5891 5892 5892 5892 5892 5891 5891 5890 5889 5887 5886 5884 5882 5880 5879 5877 5875 5874 5872 5871 5870 5870 5869 5868 5868 5867 5867 5867 5866 5866 5866 5866 5866 5866 5866 5866 5866 5866